Wind_Speed
12 10 9 7 4 3 6 7 7 7 8 7 7 4 6 6 9 10 9 3 7 13 11 10 9 8 7 6 6 6 6 6 6 7 8 8 9 9 9 9 8 9 10 11 11 12 12 12 11
12 10 9 7 5 3 10 12 8 7 7 8 7 8 10 14 14 12 5 6 11 12 13 13 13 11 10 9 8 8 8 9 9 10 11 12 12 12 12 12 12 13 13 14 15 16 16 16 16
12 11 10 15 6 15 11 6 15 8 8 10 10 10 14 16 12 7 6 12 15 17 17 16 15 13 11 11 10 11 12 13 13 14 15 15 16 17 17 18 18 19 19 20 20 21 21 21 20
14 12 11 10 8 11 7 12 13 10 10 11 12 14 16 12 6 6 11 15 16 19 21 19 16 16 16 15 15 15 14 17 18 17 18 19 20 20 21 22 22 23 24 25 25 26 26 25 26
15 14 12 7 8 19 10 13 10 10 13 16 16 17 16 5 4 5 6 8 13 18 18 18 17 19 18 18 19 20 21 20 22 24 24 24 25 26 26 27 28 28 29 30 31 30 31 31 30
21 19 11 11 17 18 12 12 6 11 7 15 18 17 10 6 4 8 9 8 10 14 19 22 19 17 20 22 24 24 25 24 24 23 25 27 30 31 32 34 35 35 36 36 37 37 37 36 36
9 16 14 10 18 18 14 13 9 14 13 9 17 13 10 11 11 11 11 14 14 16 17 22 23 24 25 25 27 27 28 28 29 29 30 30 33 35 38 40 39 39 40 41 43 43 43 42 42
5 10 12 15 21 13 18 12 15 12 25 16 13 16 11 11 13 14 14 16 19 21 22 23 25 24 24 26 26 26 30 30 32 32 33 34 36 36 39 41 42 44 46 47 46 46 47 46 46
6 6 8 13 16 18 16 17 16 18 20 17 16 16 14 14 14 16 16 17 18 21 23 24 25 25 24 24 26 29 30 31 33 33 34 38 41 43 44 46 46 48 47 48 48 51 49 50 49
8 6 7 15 12 21 20 12 15 17 17 19 18 18 17 16 16 17 17 18 19 21 22 24 24 25 25 26 29 30 31 31 33 34 36 38 40 43 44 49 49 53 52 52 54 52 54 57 56
11 9 19 20 17 21 15 13 14 11 15 22 18 18 18 17 16 18 20 22 24 24 24 25 25 26 26 26 26 26 27 28 27 29 30 30 33 34 36 39 44 49 54 55 57 58 58 59 60
14 16 15 20 18 16 17 18 15 11 19 24 18 17 17 17 18 19 18 18 19 20 20 20 20 19 19 18 19 19 20 22 25 26 30 33 36 38 39 41 44 46 47 51 56 58 59 59 61
16 15 17 16 15 17 20 18 18 20 22 25 20 16 16 17 17 14 13 14 11 10 10 11 12 12 14 15 18 22 24 26 28 31 34 37 39 41 43 45 47 49 49 50 51 55 59 61 60
18 14 18 17 18 19 21 21 21 25 19 21 19 19 18 15 13 13 9 8 8 8 11 12 14 14 17 20 23 26 29 32 35 37 39 40 41 43 44 46 46 48 50 52 55 56 56 58 60
15 15 16 17 19 21 20 23 19 26 18 20 21 20 19 14 13 11 10 11 12 14 16 18 20 20 21 24 27 29 32 36 38 40 42 43 46 46 45 46 48 49 49 49 52 56 58 57 56
15 16 16 19 19 20 18 18 23 25 21 22 22 20 18 14 12 12 13 15 17 20 22 24 26 28 29 32 34 35 38 40 42 44 45 45 44 45 45 47 50 51 53 53 51 52 54 56 56
16 13 15 18 13 17 14 12 25 26 22 24 23 21 18 14 13 15 17 20 24 25 27 28 29 31 33 34 36 40 41 43 45 45 46 46 47 47 47 48 48 50 52 55 55 53 54 53 54
12 13 16 19 22 17 19 15 20 31 25 23 23 21 19 17 18 19 22 25 27 29 31 33 34 34 35 38 39 42 44 45 46 47 48 48 47 46 47 50 52 54 54 53 54 57 56 54 52
17 17 16 20 20 23 21 22 19 29 27 25 22 21 21 22 23 24 26 29 31 32 35 35 36 38 39 42 43 45 46 46 48 50 51 50 48 48 49 52 54 55 55 55 54 56 58 57 55
21 20 17 18 25 23 23 23 22 24 28 22 22 21 21 23 24 27 28 31 33 34 36 37 39 41 43 44 46 47 48 50 51 52 51 49 50 52 54 53 53 56 58 59 59 59 58 58 58
20 20 17 19 25 24 23 22 23 22 28 22 21 19 23 25 29 30 32 32 34 36 38 40 41 44 46 48 51 51 53 54 55 54 52 52 54 56 56 57 57 57 59 61 62 61 62 60 60
21 23 24 23 23 20 23 20 20 24 27 22 20 21 24 27 28 30 32 34 35 37 39 41 44 47 49 51 53 54 56 57 54 51 53 54 57 58 59 60 59 60 61 63 63 64 64 62 60
22 31 25 26 26 24 20 24 17 17 29 23 21 22 24 27 29 30 32 37 40 37 40 43 46 49 51 53 54 56 57 53 52 54 58 58 59 60 61 59 61 62 62 62 61 60 62 60 59
30 27 27 25 24 27 22 22 16 16 26 23 23 23 26 27 28 31 34 37 40 42 43 45 48 50 52 54 56 54 53 55 56 57 58 59 61 64 61 61 62 61 61 57 56 54 52 54 55
27 26 24 22 18 20 19 20 16 29 33 28 26 26 29 28 29 32 36 38 39 43 45 47 48 51 53 55 52 53 54 55 55 56 58 61 62 59 59 61 61 58 53 50 48 45 42 47 51
26 23 19 23 11 12 28 25 18 29 26 27 27 28 29 29 33 36 37 38 41 43 45 48 49 51 52 49 51 52 51 52 55 58 59 57 58 58 58 58 55 48 45 42 43 43 41 40 46
17 22 19 22 22 28 21 20 26 30 25 26 27 28 29 30 32 35 37 40 42 43 45 46 48 49 48 49 49 49 53 56 58 56 55 57 56 56 55 52 44 42 40 40 43 44 41 40 40
27 20 23 24 27 25 16 20 19 34 25 24 25 28 30 32 33 35 38 38 40 42 44 46 47 46 47 47 49 53 56 59 56 54 54 55 54 52 52 42 39 41 42 42 48 44 40 34 33
24 28 30 21 20 19 20 16 25 28 31 23 25 26 31 35 33 37 39 38 41 42 45 46 46 47 46 48 52 56 58 55 53 53 54 55 52 50 41 37 39 42 39 43 42 38 33 29 26
19 22 20 22 22 28 30 29 23 28 24 26 21 22 29 35 44 41 40 40 42 44 46 46 45 45 46 50 55 58 53 52 52 55 54 53 49 47 36 37 37 40 39 37 34 32 30 23 23
Wind_Direction
199 194 182 194 177 125 172 236 249 306 293 303 301 286 322 318 327 331 339 313 187 188 179 197 202 204 211 215 218 223 225 231 241 253 264 262 259 258 258 259 265 274 278 273 265 262 261 259 258
194 191 177 174 111 212 189 262 223 239 299 308 305 302 318 325 326 330 303 215 196 197 193 212 215 205 218 221 225 231 234 236 242 245 251 256 257 261 261 262 262 263 263 268 271 270 269 268 267
191 192 182 149 88 251 199 195 235 279 286 293 298 306 323 322 317 297 212 202 203 199 202 210 209 208 206 214 218 222 224 232 236 240 247 251 256 259 260 259 260 260 260 261 259 258 260 261 262
196 189 180 162 164 217 236 236 269 288 287 286 294 310 320 319 300 248 214 209 217 216 213 210 214 213 211 212 221 234 237 254 249 250 253 256 259 260 261 263 262 261 261 260 260 262 261 260 261
203 201 192 203 210 226 230 235 286 289 275 284 294 307 315 318 311 282 276 244 245 241 233 232 245 251 243 247 251 256 257 263 264 265 265 270 270 271 271 270 269 268 266 265 263 261 263 262 260
217 210 203 229 225 232 211 257 231 265 266 288 292 302 303 277 311 300 285 263 252 243 245 247 255 257 268 271 270 273 269 271 273 273 273 276 277 278 278 276 275 274 273 271 269 267 264 261 262
198 214 208 233 235 233 240 248 244 250 283 234 304 292 287 281 285 281 276 270 261 254 248 253 256 261 272 272 273 277 271 270 272 275 275 274 275 276 279 279 279 278 277 276 273 271 270 269 266
177 176 208 202 228 235 242 236 231 231 245 289 289 294 271 273 283 281 266 259 260 258 258 256 260 267 272 274 271 272 272 274 279 284 285 284 283 280 280 277 280 277 279 279 276 273 270 269 268
186 168 216 204 219 221 252 255 245 264 271 276 278 274 280 285 283 280 280 272 265 266 269 269 270 273 274 265 272 276 278 280 282 285 286 286 286 284 284 284 283 281 280 279 277 274 273 272 271
201 170 223 220 196 232 255 246 257 262 271 270 268 275 284 289 285 283 281 279 275 271 269 271 275 280 281 276 278 282 286 288 290 290 288 287 286 285 288 286 285 283 283 280 277 275 274 274 272
213 179 230 222 203 217 242 222 271 268 271 268 269 283 286 288 282 279 279 275 273 272 272 273 277 280 282 283 284 284 284 287 287 289 291 292 291 294 288 289 288 284 281 279 279 277 274 272 273
217 223 226 235 238 219 242 247 260 237 235 267 286 283 284 283 285 285 276 270 270 272 275 276 275 275 277 284 287 289 290 291 295 296 297 299 300 302 301 300 299 295 291 286 280 277 275 274 270
228 225 232 239 234 237 247 257 258 259 269 278 286 286 285 287 290 286 282 279 277 279 281 278 281 288 292 293 299 301 302 301 300 301 302 302 300 299 301 302 304 303 301 297 289 281 276 275 272
248 243 243 248 242 244 255 259 261 268 271 278 286 288 287 291 291 288 270 262 270 270 271 279 289 299 307 310 308 308 307 306 304 303 302 299 298 296 296 298 299 300 300 299 297 293 286 278 274
254 260 260 256 255 260 254 264 268 271 271 279 284 288 289 298 297 283 282 285 284 288 293 298 303 306 307 305 308 310 309 308 307 306 302 298 297 297 299 298 298 296 297 296 294 293 290 287 281
258 261 267 267 266 266 268 268 272 271 281 286 289 286 289 298 295 289 288 290 290 295 299 304 306 307 310 312 311 309 308 308 307 306 303 300 295 295 296 298 298 299 297 295 296 291 287 285 284
263 257 251 252 268 266 267 262 263 279 286 291 290 284 285 288 287 286 289 290 293 297 299 301 304 304 305 305 304 304 305 304 302 301 303 302 301 299 297 295 293 296 296 295 294 294 289 284 281
246 237 242 236 274 267 275 271 241 282 289 289 289 280 282 288 288 291 292 292 293 296 297 298 300 299 300 300 302 303 303 300 301 303 304 304 301 298 298 297 297 296 294 292 293 293 291 287 282
225 244 221 245 247 276 282 278 253 272 287 288 283 283 288 291 294 296 293 292 292 294 296 296 295 297 300 302 303 303 302 303 306 308 308 305 302 301 301 300 298 296 295 293 291 290 288 287 282
243 239 238 240 244 270 275 275 257 256 286 284 283 283 281 282 282 282 283 283 286 290 293 295 296 300 301 302 303 303 304 307 308 308 306 303 303 303 303 300 297 296 294 293 291 288 285 284 281
248 245 235 236 267 267 272 269 257 252 264 284 280 279 278 278 279 283 285 285 288 291 294 296 300 302 305 304 305 307 308 309 310 309 307 308 307 306 303 301 298 297 294 292 289 286 282 281 278
249 254 238 232 254 272 284 272 265 274 262 280 276 272 275 277 280 282 286 289 289 294 296 300 302 304 304 305 308 310 311 310 309 308 309 308 307 307 304 302 300 297 294 293 290 286 282 278 276
233 241 256 256 262 262 253 272 260 246 252 277 274 276 274 276 282 286 288 290 294 296 298 301 303 303 305 308 310 311 310 308 309 310 311 308 306 306 304 301 300 299 299 297 293 291 283 276 273
255 262 263 264 263 263 266 252 257 264 270 269 281 282 279 284 287 288 286 291 295 299 301 303 303 305 308 310 310 309 309 309 309 309 308 307 306 305 304 302 303 304 303 302 300 298 284 272 272
256 259 262 265 263 268 248 250 228 246 250 267 281 281 284 287 286 285 290 292 298 298 301 302 304 306 309 308 307 309 311 311 310 310 308 306 306 307 305 305 306 306 304 304 305 303 291 275 270
254 251 250 248 230 266 261 272 255 261 263 269 273 279 283 285 286 290 294 293 296 299 301 303 304 305 305 307 310 313 313 314 312 309 306 308 308 307 308 307 306 304 308 309 311 306 298 287 278
250 256 242 252 241 225 241 274 277 276 270 274 279 280 282 284 285 289 292 293 296 299 300 301 304 305 309 313 314 314 316 314 311 309 309 308 308 310 311 308 306 304 305 304 313 309 299 289 282
247 242 252 254 254 260 271 239 261 277 286 286 286 287 286 287 289 288 288 292 296 298 299 303 306 310 313 315 315 316 316 314 311 309 308 310 311 310 312 307 310 310 303 300 312 309 303 295 286
260 248 252 238 255 270 244 238 256 267 284 289 296 297 297 299 293 293 294 297 298 301 304 308 311 313 314 316 317 316 314 310 309 310 312 312 312 313 309 308 310 309 309 307 313 308 306 299 289
227 254 264 248 242 256 270 259 247 267 269 280 284 280 280 298 294 298 301 303 305 306 309 311 314 314 316 318 316 314 310 312 312 313 312 310 310 313 306 312 308 309 311 313 314 311 311 305 297
Height
5910 5913 5916 5918 5923 5924 5923 5928 5924 5923 5920 5921 5920 5920 5919 5917 5917 5916 5911 5910 5910 5911 5912 5913 5913 5913 5913 5913 5913 5914 5914 5915 5914 5915 5915 5915 5914 5913 5913 5913 5912 5913 5913 5912 5912 5912 5911 5911 5910
5911 5914 5917 5919 5924 5928 5925 5924 5923 5920 5919 5919 5919 5918 5917 5915 5915 5913 5911 5910 5910 5910 5911 5911 5911 5911 5911 5911 5911 5912 5912 5912 5912 5912 5912 5912 5911 5910 5910 5909 5909 5909 5909 5909 5909 5909 5909 5909 5908
5911 5914 5917 5919 5923 5927 5915 5921 5919 5918 5919 5918 5917 5917 5916 5914 5913 5911 5909 5908 5907 5907 5908 5908 5909 5908 5908 5909 5909 5909 5908 5908 5908 5908 5908 5907 5907 5907 5907 5906 5905 5905 5905 5905 5905 5905 5905 5905 5904
5911 5914 5918 5920 5928 5925 5922 5920 5917 5917 5918 5918 5916 5916 5915 5912 5910 5909 5907 5907 5907 5906 5905 5906 5906 5906 5906 5905 5905 5905 5904 5905 5904 5904 5903 5903 5903 5903 5902 5902 5901 5901 5901 5901 5901 5901 5900 5900 5900
5910 5913 5916 5920 5929 5922 5925 5920 5917 5917 5915 5915 5913 5913 5912 5910 5908 5907 5907 5906 5907 5906 5905 5905 5905 5904 5904 5904 5903 5903 5902 5902 5902 5902 5901 5901 5900 5899 5899 5898 5898 5897 5897 5896 5896 5895 5895 5894 5894
5907 5911 5916 5923 5925 5920 5922 5918 5922 5919 5916 5911 5911 5910 5910 5909 5908 5906 5906 5906 5905 5904 5903 5903 5903 5902 5902 5901 5899 5898 5897 5897 5898 5897 5897 5897 5896 5896 5895 5894 5894 5893 5892 5891 5890 5889 5888 5887 5887
5905 5909 5915 5923 5923 5916 5918 5917 5919 5918 5913 5914 5907 5907 5908 5907 5907 5906 5904 5903 5902 5901 5900 5900 5899 5899 5898 5897 5896 5895 5894 5893 5893 5893 5893 5892 5891 5890 5890 5888 5888 5887 5886 5885 5884 5883 5882 5880 5880
5904 5905 5914 5921 5919 5917 5912 5914 5914 5917 5907 5907 5907 5908 5907 5906 5904 5903 5902 5901 5899 5898 5897 5897 5896 5895 5894 5893 5892 5892 5891 5891 5890 5890 5889 5888 5886 5887 5884 5882 5884 5880 5879 5878 5876 5874 5873 5873 5872
5904 5906 5914 5919 5917 5916 5910 5908 5909 5908 5906 5905 5904 5904 5904 5903 5902 5900 5899 5898 5897 5896 5894 5893 5892 5892 5891 5891 5890 5889 5887 5887 5886 5885 5884 5882 5880 5879 5878 5874 5875 5872 5872 5871 5868 5865 5866 5864 5863
5903 5906 5916 5914 5915 5913 5907 5907 5904 5906 5904 5902 5902 5901 5901 5901 5900 5898 5897 5895 5894 5892 5891 5890 5889 5888 5888 5887 5886 5885 5884 5883 5881 5879 5877 5876 5873 5871 5870 5865 5865 5861 5861 5860 5856 5859 5857 5854 5852
5901 5905 5910 5906 5908 5910 5905 5909 5904 5904 5901 5897 5899 5900 5899 5899 5898 5897 5895 5893 5890 5889 5889 5887 5886 5885 5884 5883 5882 5881 5879 5877 5876 5874 5872 5870 5866 5864 5861 5857 5855 5853 5850 5849 5845 5844 5843 5843 5843
5899 5899 5901 5902 5903 5905 5903 5902 5902 5904 5902 5896 5897 5897 5896 5896 5895 5893 5891 5889 5888 5887 5885 5885 5884 5883 5882 5881 5879 5878 5876 5874 5872 5870 5866 5863 5859 5856 5853 5849 5845 5842 5839 5836 5835 5833 5830 5829 5830
5896 5897 5897 5898 5899 5900 5898 5899 5899 5897 5896 5893 5894 5894 5893 5892 5891 5889 5887 5886 5885 5885 5884 5882 5882 5881 5880 5878 5876 5874 5872 5869 5866 5864 5861 5857 5853 5849 5845 5840 5836 5831 5827 5823 5822 5820 5818 5817 5815
5893 5895 5894 5895 5896 5896 5895 5895 5895 5893 5894 5891 5890 5889 5889 5888 5887 5885 5885 5884 5884 5883 5882 5881 5880 5879 5877 5874 5872 5869 5866 5863 5860 5856 5853 5850 5846 5842 5838 5833 5829 5823 5818 5813 5807 5804 5803 5802 5801
5890 5891 5891 5892 5892 5891 5893 5891 5891 5888 5890 5889 5887 5886 5884 5884 5883 5882 5882 5881 5881 5879 5878 5876 5875 5874 5872 5870 5867 5863 5860 5856 5853 5849 5845 5842 5836 5832 5828 5823 5818 5813 5809 5804 5798 5793 5788 5786 5786
5887 5888 5888 5887 5888 5888 5890 5890 5886 5884 5886 5885 5883 5882 5881 5881 5880 5879 5879 5878 5877 5876 5874 5872 5870 5868 5865 5862 5859 5856 5852 5848 5844 5840 5836 5832 5828 5823 5819 5812 5806 5800 5795 5791 5787 5782 5777 5773 5770
5883 5885 5885 5886 5884 5884 5886 5887 5884 5881 5882 5880 5879 5878 5878 5878 5878 5877 5875 5873 5871 5870 5869 5867 5866 5863 5860 5857 5854 5850 5846 5843 5838 5833 5827 5821 5816 5810 5806 5801 5796 5791 5784 5778 5772 5768 5763 5761 5759
5884 5883 5888 5886 5881 5882 5882 5884 5884 5876 5877 5877 5875 5875 5875 5875 5873 5872 5870 5869 5867 5865 5863 5861 5859 5857 5854 5850 5847 5843 5839 5834 5829 5823 5817 5811 5805 5799 5794 5788 5782 5777 5772 5767 5760 5754 5749 5746 5744
5884 5884 5884 5884 5883 5877 5878 5878 5879 5874 5873 5872 5871 5872 5871 5870 5868 5867 5866 5864 5862 5860 5857 5855 5853 5850 5847 5843 5839 5835 5830 5824 5817 5811 5804 5798 5793 5787 5782 5775 5768 5761 5756 5752 5747 5741 5736 5732 5729
5874 5876 5879 5880 5875 5875 5874 5874 5874 5872 5868 5869 5868 5868 5868 5866 5865 5863 5862 5860 5856 5854 5850 5847 5844 5841 5837 5833 5829 5825 5818 5812 5805 5799 5793 5787 5781 5774 5768 5762 5755 5749 5742 5737 5731 5727 5722 5718 5714
5869 5871 5873 5875 5869 5870 5870 5869 5869 5869 5865 5865 5864 5865 5863 5863 5860 5858 5855 5853 5849 5846 5843 5839 5836 5832 5827 5823 5817 5812 5805 5799 5793 5786 5779 5773 5767 5761 5753 5746 5739 5734 5727 5720 5714 5709 5705 5702 5699
5865 5864 5865 5866 5865 5866 5865 5866 5867 5864 5862 5860 5860 5860 5859 5857 5856 5853 5850 5845 5843 5839 5835 5832 5828 5823 5819 5812 5805 5800 5793 5787 5781 5775 5769 5762 5754 5746 5738 5730 5724 5717 5710 5703 5696 5690 5686 5684 5682
5861 5856 5860 5860 5860 5860 5863 5860 5863 5862 5858 5856 5856 5855 5854 5852 5850 5847 5844 5838 5834 5833 5829 5824 5820 5815 5809 5803 5796 5789 5783 5775 5770 5762 5755 5748 5740 5732 5723 5715 5708 5701 5693 5685 5678 5671 5666 5664 5663
5852 5854 5854 5854 5855 5853 5856 5856 5862 5861 5853 5852 5850 5849 5848 5847 5844 5840 5837 5832 5828 5823 5820 5817 5812 5805 5799 5792 5785 5778 5772 5765 5758 5750 5741 5734 5725 5717 5709 5701 5692 5684 5675 5668 5661 5654 5647 5645 5646
5847 5848 5849 5849 5850 5850 5850 5851 5854 5847 5848 5847 5845 5843 5841 5840 5837 5834 5829 5824 5822 5817 5813 5809 5803 5795 5790 5783 5776 5768 5761 5753 5745 5737 5728 5720 5712 5703 5695 5686 5677 5669 5661 5654 5647 5641 5634 5631 5631
5841 5843 5844 5844 5851 5853 5842 5844 5845 5840 5841 5841 5839 5836 5835 5833 5829 5825 5821 5818 5815 5811 5806 5799 5793 5787 5781 5774 5766 5758 5749 5741 5733 5724 5716 5707 5699 5691 5682 5674 5665 5657 5650 5643 5637 5630 5625 5620 5617
5838 5836 5841 5840 5840 5841 5843 5843 5835 5833 5834 5833 5831 5830 5828 5825 5822 5818 5815 5810 5807 5803 5798 5792 5785 5778 5771 5763 5756 5748 5739 5730 5721 5712 5703 5696 5687 5679 5670 5661 5654 5647 5641 5635 5629 5621 5614 5610 5606
5830 5834 5832 5832 5832 5834 5838 5838 5834 5825 5827 5825 5824 5822 5819 5817 5815 5813 5808 5805 5800 5795 5789 5783 5776 5769 5761 5754 5746 5737 5728 5718 5709 5701 5693 5684 5675 5667 5659 5651 5644 5638 5632 5626 5619 5611 5604 5599 5596
5823 5824 5824 5828 5831 5827 5829 5834 5826 5823 5820 5820 5817 5814 5810 5807 5807 5804 5799 5797 5791 5786 5779 5773 5766 5759 5752 5745 5736 5727 5717 5708 5699 5690 5682 5673 5665 5657 5649 5642 5637 5631 5624 5618 5611 5602 5596 5591 5588
5820 5820 5819 5820 5823 5823 5820 5821 5819 5816 5815 5812 5813 5811 5805 5802 5796 5794 5790 5786 5781 5776 5769 5763 5757 5751 5743 5735 5726 5716 5706 5697 5689 5679 5671 5662 5655 5648 5641 5635 5629 5623 5617 5610 5604 5596 5590 5586 5583